Location: Haieshausen
(51.8387°N, 9.9720°E)
Time: 04:24:51
(UTC+00:00)

BREEZE-M DEB (TANK) - Pass Details

Date: 14 July 2020
Orbit: 428 x 13238 km, 46.0° (Epoch: 10 August)

Event Time Altitude Azimuth Distance (km) Brightness Sun altitude
Rises 00:06:40 0° 249° (WSW) 6,761 8.0 -16.0°
Reaches altitude 10° 00:12:52 10° 245° (WSW) 4,207 6.9 -15.8°
Maximum altitude 00:20:46 41° 178° (S) 1,128 3.9 -15.6°
Drops below altitude 10° 00:24:07 10° 105° (ESE) 1,782 5.4 -15.4°
Sets 00:25:43 0° 97° (E) 2,487 6.3 -15.4°
